DW5656 Weather Reports


Display with metric or nautical units.
time (UTC)temp
F
wind
direction
speed
MPH
gust
MPH
rain 1hr
in
rain 24hr
in
rain mn
in
humidity
%
barometer
mb
20200812155855 83 194 7.0 16.0 0.00 0.00 0.00 54 1011.8
20200812154955 83 205 8.0 17.0 0.00 0.00 0.00 54 1011.9
20200812154057 83 198 8.0 14.0 0.00 0.00 0.00 54 1011.9
20200812153155 83 219 7.0 17.0 0.00 0.00 0.00 53 1011.9
20200812152256 84 209 7.0 17.0 0.00 0.00 0.00 52 1011.9
20200812151355 83 202 7.0 15.0 0.00 0.00 0.00 52 1012.1
20200812150455 84 191 6.0 13.0 0.00 0.00 0.00 52 1012.1
20200812145556 83 195 6.0 15.0 0.00 0.00 0.00 52 1012.0
20200812144657 84 206 5.0 13.0 0.00 0.00 0.00 51 1012.2
20200812143758 83 191 6.0 13.0 0.00 0.00 0.00 52 1012.2
20200812142855 83 205 6.0 14.0 0.00 0.00 0.00 53 1012.4
20200812141954 83 207 6.0 16.0 0.00 0.00 0.00 52 1012.5
20200812141054 83 213 6.0 17.0 0.00 0.00 0.00 52 1012.6
20200812140154 83 203 6.0 15.0 0.00 0.00 0.00 53 1012.7
20200812135301 83 206 6.0 13.0 0.00 0.00 0.00 52 1012.7
20200812134354 83 184 6.0 17.0 0.00 0.00 0.00 52 1012.8
20200812133454 83 188 5.0 13.0 0.00 0.00 0.00 52 1013.0
20200812132555 82 225 6.0 13.0 0.00 0.00 0.00 54 1013.2
20200812131655 81 224 7.0 15.0 0.00 0.00 0.00 54 1013.3
20200812130758 81 225 6.0 15.0 0.00 0.00 0.00 55 1013.4
20200812125855 82 216 6.0 14.0 0.00 0.00 0.00 55 1013.4
20200812124954 82 210 5.0 14.0 0.00 0.00 0.00 54 1013.4
20200812124054 81 223 6.0 14.0 0.00 0.00 0.00 57 1013.5
20200812123154 80 239 6.0 13.0 0.00 0.00 0.00 58 1013.6
20200812122255 80 246 5.0 14.0 0.00 0.00 0.00 58 1013.6
20200812121354 80 200 6.0 16.0 0.00 0.00 0.00 59 1013.6
20200812120454 79 245 6.0 12.0 0.00 0.00 0.00 60 1013.7
20200812115555 79 236 6.0 15.0 0.00 0.00 0.00 59 1013.8
20200812114654 79 235 5.0 14.0 0.00 0.00 0.00 60 1013.8
20200812113800 79 218 5.0 13.0 0.00 0.00 0.00 60 1013.9
20200812112854 79 219 5.0 11.0 0.00 0.00 0.00 61 1014.0
20200812111954 78 229 6.0 15.0 0.00 0.00 0.00 62 1014.1
20200812111054 78 212 5.0 14.0 0.00 0.00 0.00 63 1014.1
20200812110154 78 195 5.0 12.0 0.00 0.00 0.00 63 1014.2
20200812105256 77 208 5.0 11.0 0.00 0.00 0.00 63 1014.3
20200812104354 77 239 7.0 11.0 0.00 0.00 0.00 63 1014.3
20200812103454 77 203 6.0 16.0 0.00 0.00 0.00 63 1014.3
20200812102555 76 215 7.0 15.0 0.00 0.00 0.00 64 1014.2
20200812101654 76 213 5.0 14.0 0.00 0.00 0.00 64 1014.3
20200812100756 76 210 6.0 13.0 0.00 0.00 0.00 64 1014.2
20200812095855 76 214 7.0 14.0 0.00 0.00 0.00 63 1014.2
20200812094955 75 221 5.0 16.0 0.00 0.00 0.00 64 1014.2
20200812094054 76 215 6.0 12.0 0.00 0.00 0.00 66 1014.1
20200812093158 75 220 6.0 17.0 0.00 0.00 0.00 66 1014.1
20200812092254 74 199 5.0 12.0 0.00 0.00 0.00 71 1014.1
20200812091354 74 213 5.0 13.0 0.00 0.00 0.00 72 1014.1
20200812090454 73 205 5.0 10.0 0.00 0.00 0.00 75 1014.1
20200812085554 72 186 5.0 15.0 0.00 0.00 0.00 76 1014.0
20200812084654 72 191 4.0 12.0 0.00 0.00 0.00 75 1013.9
20200812083754 72 201 4.0 9.0 0.00 0.00 0.00 77 1014.0
20200812082854 71 196 4.0 11.0 0.00 0.00 0.00 78 1013.8
20200812081954 71 207 4.0 12.0 0.00 0.00 0.00 79 1013.8
20200812081054 71 210 5.0 9.0 0.00 0.00 0.00 80 1013.8
20200812080155 70 222 4.0 11.0 0.00 0.00 0.00 80 1013.8
20200812075305 70 231 3.0 11.0 0.00 0.00 0.00 80 1013.7
20200812074354 70 217 3.0 7.0 0.00 0.00 0.00 81 1013.6
20200812073454 69 207 3.0 8.0 0.00 0.00 0.00 82 1013.5
20200812072554 69 210 3.0 8.0 0.00 0.00 0.00 81 1013.5
20200812071654 68 211 3.0 8.0 0.00 0.00 0.00 81 1013.3
20200812070755 69 178 2.0 8.0 0.00 0.00 0.00 81 1013.2
20200812065854 68 205 3.0 6.0 0.00 0.00 0.00 82 1013.1
20200812064954 68 218 3.0 8.0 0.00 0.00 0.00 82 1013.1
20200812064054 68 205 3.0 6.0 0.00 0.00 0.00 83 1013.1
20200812063154 67 207 4.0 9.0 0.00 0.00 0.00 83 1013.0
20200812062253 68 216 2.0 7.0 0.00 0.00 0.00 83 1012.8
20200812061354 68 197 2.0 3.0 0.00 0.00 0.00 84 1012.7
20200812060453 68 216 3.0 5.0 0.00 0.00 0.00 84 1012.6
20200812055553 67 214 3.0 7.0 0.00 0.00 0.00 84 1012.4
20200812054653 68 189 3.0 7.0 0.00 0.00 0.00 83 1012.4
20200812053753 68 214 3.0 6.0 0.00 0.00 0.00 83 1012.3
20200812052853 68 206 3.0 6.0 0.00 0.00 0.00 83 1012.2
20200812051953 68 203 2.0 6.0 0.00 0.00 0.00 83 1012.1
20200812051053 69 206 2.0 6.0 0.00 0.00 0.00 83 1012.0
20200812050153 69 228 2.0 5.0 0.00 0.00 0.00 83 1011.9
20200812045253 69 218 3.0 8.0 0.00 0.00 0.00 83 1012.0
20200812044353 69 214 3.0 6.0 0.00 0.00 0.00 84 1011.9
20200812043454 70 218 2.0 5.0 0.00 0.00 0.00 83 1011.8
20200812042553 70 240 2.0 5.0 0.00 0.00 0.00 84 1011.8
20200812041654 70 238 1.0 4.0 0.00 0.00 0.00 84 1011.8
20200812040754 70 229 2.0 4.0 0.00 0.00 0.00 85 1011.7
20200812035854 70 215 2.0 4.0 0.00 0.00 0.00 86 1011.5
20200812034953 70 214 2.0 5.0 0.00 0.00 0.00 86 1011.5
20200812034053 70 202 3.0 5.0 0.00 0.00 0.00 86 1011.6
20200812033153 70 205 3.0 5.0 0.00 0.00 0.00 86 1011.6
20200812032253 70 211 3.0 7.0 0.00 0.00 0.00 86 1011.5
20200812031356 70 230 3.0 6.0 0.00 0.00 0.00 86 1011.6
20200812030454 70 209 3.0 8.0 0.00 0.00 0.00 86 1011.4
20200812025553 70 203 4.0 10.0 0.00 0.00 0.00 86 1011.4
20200812024653 70 214 4.0 10.0 0.00 0.00 0.00 86 1011.4
20200812023755 71 210 4.0 9.0 0.00 0.00 0.00 86 1011.5
20200812022853 71 207 5.0 12.0 0.00 0.00 0.00 86 1011.5
20200812021953 71 200 5.0 12.0 0.00 0.00 0.00 85 1011.4
20200812021053 71 198 5.0 10.0 0.00 0.00 0.00 85 1011.5
20200812020154 71 207 5.0 10.0 0.00 0.00 0.00 85 1011.4
20200812015254 71 210 4.0 14.0 0.00 0.00 0.00 85 1011.5
20200812014353 71 210 4.0 7.0 0.00 0.00 0.00 85 1011.5
20200812013454 71 202 5.0 11.0 0.00 0.00 0.00 85 1011.6
20200812012553 71 202 4.0 10.0 0.00 0.00 0.00 85 1011.5
20200812011657 71 201 6.0 10.0 0.00 0.00 0.00 85 1011.5
20200812010757 71 206 5.0 12.0 0.00 0.00 0.00 85 1011.5
20200812005854 71 210 4.0 11.0 0.00 0.00 0.00 84 1011.5
20200812004953 71 213 5.0 11.0 0.00 0.00 0.00 84 1011.6
20200812004053 71 207 5.0 11.0 0.00 0.00 0.00 83 1011.6
20200812003153 71 212 4.0 9.0 0.00 0.00 0.00 82 1011.5
20200812002252 71 205 4.0 9.0 0.00 0.00 0.00 82 1011.5
20200812001352 71 215 4.0 11.0 0.00 0.00 0.00 81 1011.5
20200812000452 72 216 5.0 12.0 0.00 0.00 0.00 80 1011.5
20200811235553 72 211 4.0 11.0 0.00 0.00 0.00 80 1011.4
20200811234654 72 204 5.0 10.0 0.00 0.00 0.00 80 1011.4
20200811233754 72 205 6.0 10.0 0.00 0.00 0.00 80 1011.2
20200811232852 72 209 5.0 14.0 0.00 0.00 0.00 79 1011.2
20200811232000 72 213 6.0 14.0 0.00 0.00 0.00 79 1011.3
20200811231052 72 214 6.0 14.0 0.00 0.00 0.00 79 1011.2
20200811230152 72 208 5.0 12.0 0.00 0.00 0.00 78 1011.3
20200811225252 72 208 5.0 12.0 0.00 0.00 0.00 78 1011.4
20200811224352 73 206 5.0 10.0 0.00 0.00 0.00 77 1011.5
20200811223452 73 215 4.0 11.0 0.00 0.00 0.00 76 1011.4
20200811222552 73 218 3.0 9.0 0.00 0.00 0.00 76 1011.4
20200811221652 74 220 3.0 10.0 0.00 0.00 0.00 75 1011.4
20200811203752 77 215 5.0 10.0 0.00 0.00 0.00 64 1010.5
20200811202853 77 205 5.0 12.0 0.00 0.00 0.00 63 1010.3
20200811201952 78 217 5.0 12.0 0.00 0.00 0.00 60 1010.1
20200811201052 78 221 6.0 12.0 0.00 0.00 0.00 58 1010.0
20200811200152 78 225 7.0 14.0 0.00 0.00 0.00 58 1009.9
20200811195254 78 219 7.0 17.0 0.00 0.00 0.00 57 1009.5
20200811194354 79 223 7.0 14.0 0.00 0.00 0.00 57 1009.3
20200811193452 80 227 7.0 17.0 0.00 0.00 0.00 57 1009.3
20200811192553 80 217 7.0 11.0 0.00 0.00 0.00 56 1009.0
20200811191654 81 219 7.0 16.0 0.00 0.00 0.00 56 1008.9
20200811190754 82 214 6.0 13.0 0.00 0.00 0.00 55 1008.7
20200811185852 82 208 7.0 15.0 0.00 0.00 0.00 57 1008.6
20200811184952 83 207 7.0 15.0 0.00 0.00 0.00 57 1008.3
20200811184055 83 206 7.0 14.0 0.00 0.00 0.00 54 1008.3
20200811183152 84 206 7.0 13.0 0.00 0.00 0.00 52 1008.2
20200811182252 85 205 7.0 15.0 0.00 0.00 0.00 50 1008.2
20200811181352 86 216 6.0 12.0 0.00 0.00 0.00 48 1008.1
20200811180452 86 216 7.0 13.0 0.00 0.00 0.00 46 1008.0
20200811175552 87 211 8.0 16.0 0.00 0.00 0.00 45 1007.9
20200811174656 87 209 7.0 17.0 0.00 0.00 0.00 44 1007.8
20200811173752 88 210 8.0 15.0 0.00 0.00 0.00 43 1007.7
20200811172852 88 214 8.0 16.0 0.00 0.00 0.00 44 1007.7
20200811171952 88 218 8.0 19.0 0.00 0.00 0.00 46 1007.7
20200811171052 88 219 8.0 19.0 0.00 0.00 0.00 46 1007.7
20200811170152 88 234 9.0 21.0 0.00 0.00 0.00 47 1007.7
20200811165252 88 242 8.0 21.0 0.00 0.00 0.00 47 1007.7
20200811164358 89 245 9.0 17.0 0.00 0.00 0.00 48 1007.7
20200811163452 88 238 9.0 18.0 0.00 0.00 0.00 48 1007.8
20200811162551 89 247 10.0 18.0 0.00 0.00 0.00 47 1007.7
20200811161652 89 239 9.0 18.0 0.00 0.00 0.00 46 1007.8
20200811160751 89 248 10.0 21.0 0.00 0.00 0.00 47 1007.9